This is the latest recevied weather packets stored in our database for station/object W4TJP. If no packets are shown the sender has not sent any weather packets the latest 10 day(s).
| Time | Temp. | Humidity | Pressure | Rain* | Wind** | Luminosity | Snow |
|---|---|---|---|---|---|---|---|
| 1777926478 | 24.44° C | 45% | 1012.3 hPa | 0 mm | - | 531 W/m² | - |
| 1777926176 | 24.44° C | 45% | 1012.5 hPa | 0 mm | - | 133 W/m² | - |
| 1777925873 | 25° C | 43% | 1012.4 hPa | 0 mm | - | 576 W/m² | - |
| 1777925570 | 25° C | 46% | 1012.6 hPa | 0 mm | - | 527 W/m² | - |
| 1777925268 | 25.56° C | 45% | 1012.7 hPa | 0 mm | - | 146 W/m² | - |
| 1777924963 | 25.56° C | 46% | 1012.8 hPa | 0 mm | - | 594 W/m² | - |
| 1777924660 | 25° C | 50% | 1012.8 hPa | 0 mm | - | 619 W/m² | - |
| 1777924356 | 24.44° C | 47% | 1012.7 hPa | 0 mm | - | 665 W/m² | - |
| 1777924053 | 24.44° C | 47% | 1012.7 hPa | 0 mm | - | 729 W/m² | - |
| 1777923749 | 24.44° C | 47% | 1012.9 hPa | 0 mm | - | 741 W/m² | - |
| 1777923446 | 24.44° C | 47% | 1013.1 hPa | 0 mm | - | 665 W/m² | - |
| 1777923143 | 25° C | 49% | 1013.2 hPa | 0 mm | - | 677 W/m² | - |
| 1777922842 | 25° C | 45% | 1013.4 hPa | 0 mm | - | 670 W/m² | - |
| 1777922539 | 25° C | 49% | 1013.3 hPa | 0 mm | - | 678 W/m² | - |
| 1777922238 | 24.44° C | 48% | 1013.4 hPa | 0 mm | - | 678 W/m² | - |
| 1777921934 | 24.44° C | 49% | 1013.3 hPa | 0 mm | - | 685 W/m² | - |
| 1777921630 | 25° C | 48% | 1013.2 hPa | 0 mm | - | 698 W/m² | - |
| 1777921326 | 25.56° C | 49% | 1013.1 hPa | 0 mm | - | 677 W/m² | - |
| 1777921023 | 25° C | 49% | 1013.2 hPa | 0 mm | - | 694 W/m² | - |
| 1777920719 | 25° C | 49% | 1013.4 hPa | 0 mm | - | 716 W/m² | - |
| 1777920415 | 25° C | 49% | 1013.3 hPa | 0 mm | - | 736 W/m² | - |
| 1777920111 | 24.44° C | 51% | 1013.5 hPa | 0 mm | - | 734 W/m² | - |
| 1777919808 | 24.44° C | 50% | 1013.6 hPa | 0 mm | - | 711 W/m² | - |
| 1777919505 | 23.89° C | 51% | 1013.6 hPa | 0 mm | - | 686 W/m² | - |
| 1777919203 | 23.89° C | 51% | 1013.7 hPa | 0 mm | - | 686 W/m² | - |
* Rain latest hour (hover to see other rain measurements)
** Current wind speed in m/s (hover to see current wind gust speed)